^^
Datos históricos de la estación: Murcia-Puente Tocinos
Diario Informe para Marzo 7, 2019 Unidades:  Inglés    Métrico   Ambas
Diario Semanal Mensual Anual Configurable
  Máximo: Mínimo: Media:
Temperatura: 68.7 °F 55.2 °F 60.4 °F
Punto de rocio: 41.7 °F 30.6 °F 36.7 °F
Humedad: 57% 26% 42%
Velocidad viento: 11.2mph 0mph 5mph
Racha viento: 18.4mph - -
Viento- - SW
Presión: 30 in 29.9 in -
Precipitación: 0 in    
Historical Graphs
 
 
Tabla de datos para Marzo 7, 2019
Hora Temperatura Punto de rocio Presión Viento Velocidad viento Racha viento Humedad Intensidad lluvia(por hora) Nubes
00:00 61.9 °F 39 °F 29.9 in WSW 9 mph 15 mph 43% 0 in CLR
00:05 61.9 °F 38.5 °F 29.9 in WSW 8.7 mph 13.8 mph 42% 0 in CLR
00:10 61.7 °F 37.8 °F 29.9 in West 8.1 mph 11.5 mph 41% 0 in CLR
00:15 61.9 °F 37.2 °F 29.9 in SW 8.1 mph 15.2 mph 40% 0 in CLR
00:20 61.9 °F 37.9 °F 29.9 in SW 9.2 mph 12.7 mph 41% 0 in CLR
00:25 61.7 °F 37.8 °F 29.9 in WSW 9.2 mph 12.7 mph 41% 0 in CLR
00:30 61.5 °F 37.6 °F 29.9 in WNW 8.1 mph 17.3 mph 41% 0 in CLR
00:35 61.7 °F 38.5 °F 29.9 in SW 8.1 mph 10.4 mph 42% 0 in CLR
00:40 61.5 °F 38.1 °F 29.9 in WSW 8.7 mph 11.5 mph 42% 0 in CLR
00:45 61.3 °F 37.9 °F 29.9 in West 8.7 mph 11.2 mph 42% 0 in CLR
00:50 61.3 °F 37.9 °F 29.9 in SW 7.4 mph 9.2 mph 42% 0 in CLR
00:55 61.2 °F 37.2 °F 29.9 in SW 7.4 mph 12.5 mph 41% 0 in CLR
01:00 61.2 °F 37.2 °F 29.9 in WSW 8 mph 13 mph 41% 0 in CLR
01:05 61 °F 37 °F 29.9 in SSW 8.5 mph 8.1 mph 41% 0 in CLR
01:10 61 °F 37 °F 29.9 in SW 5.4 mph 6.9 mph 41% 0 in CLR
01:15 61 °F 36.5 °F 29.9 in SW 5.4 mph 9.2 mph 40% 0 in CLR
01:20 60.8 °F 36.9 °F 29.9 in SSW 5.4 mph 6.9 mph 41% 0 in CLR
01:25 60.6 °F 36.9 °F 29.9 in SW 5.4 mph 6.9 mph 41% 0 in CLR
01:30 60.6 °F 36.1 °F 29.9 in SSW 5.2 mph 6.9 mph 40% 0 in CLR
01:35 60.4 °F 36.7 °F 29.9 in WSW 5.2 mph 3.5 mph 41% 0 in CLR
01:40 60.4 °F 36 °F 29.9 in WSW 3.1 mph 4.6 mph 40% 0 in CLR
01:45 60.4 °F 35.2 °F 29.9 in SW 3.1 mph 6.9 mph 39% 0 in CLR
01:50 60.3 °F 35.8 °F 29.9 in SSE 3.6 mph 5.8 mph 40% 0 in CLR
01:55 60.1 °F 36.3 °F 29.9 in SSE 3.6 mph 5.8 mph 41% 0 in CLR
02:00 59.5 °F 35.8 °F 29.9 in SSE 5 mph 7 mph 41% 0 in CLR
02:05 59.2 °F 36.1 °F 29.9 in South 4 mph 8.5 mph 42% 0 in CLR
02:10 59.2 °F 35.4 °F 29.9 in South 5.4 mph 6.9 mph 41% 0 in CLR
02:15 59.2 °F 35.4 °F 29.9 in SSE 5.4 mph 6.9 mph 41% 0 in CLR
02:20 59.2 °F 35.4 °F 29.9 in South 5.2 mph 6.9 mph 41% 0 in CLR
02:25 59.2 °F 35.4 °F 29.9 in SSW 5.2 mph 5.8 mph 41% 0 in CLR
02:30 59.2 °F 35.4 °F 29.9 in SSE 4.3 mph 3.6 mph 41% 0 in CLR
02:35 59.2 °F 35.4 °F 29.9 in SSE 4.3 mph 2.3 mph 41% 0 in CLR
02:40 59.2 °F 36.1 °F 29.9 in NE 2 mph 3.5 mph 42% 0 in CLR
02:45 58.8 °F 35.8 °F 29.9 in NE 2 mph 4.6 mph 42% 0 in CLR
02:50 58.6 °F 35.6 °F 29.9 in SW 2 mph 5.8 mph 42% 0 in CLR
02:55 58.6 °F 35.6 °F 29.9 in WSW 2 mph 6.9 mph 42% 0 in CLR
03:00 58.8 °F 35.8 °F 29.9 in SW 5 mph 8 mph 42% 0 in CLR
03:05 58.8 °F 35.2 °F 29.9 in SW 4.7 mph 9.2 mph 41% 0 in CLR
03:10 58.8 °F 35.2 °F 29.9 in SW 5.4 mph 8.1 mph 41% 0 in CLR
03:15 58.8 °F 35.2 °F 29.9 in West 5.4 mph 9.2 mph 41% 0 in CLR
03:20 59.2 °F 35.4 °F 29.9 in WSW 5.2 mph 11.5 mph 41% 0 in CLR
03:25 59.4 °F 35.6 °F 29.9 in West 5.2 mph 2.3 mph 41% 0 in CLR
03:30 58.8 °F 35.8 °F 29.9 in East 3.1 mph 8.1 mph 42% 0 in CLR
03:35 57.9 °F 35.4 °F 29.9 in East 3.1 mph 5.2 mph 43% 0 in CLR
03:40 57.4 °F 35.6 °F 29.9 in ESE 4 mph 4.6 mph 44% 0 in CLR
03:45 57.4 °F 35.6 °F 29.9 in SE 4 mph 4.6 mph 44% 0 in CLR
03:50 57.4 °F 35.6 °F 29.9 in South 3.6 mph 4.6 mph 44% 0 in CLR
03:55 57.6 °F 35.8 °F 29.9 in SSW 3.6 mph 4.6 mph 44% 0 in CLR
04:00 57.7 °F 35.4 °F 29.9 in South 2 mph 5 mph 43% 0 in CLR
04:05 57.7 °F 36 °F 29.9 in SSW 2.9 mph 2.3 mph 44% 0 in CLR
04:10 57.6 °F 35.8 °F 29.9 in SSW 1.8 mph 3.1 mph 44% 0 in CLR
04:15 57.6 °F 35.2 °F 29.9 in SSW 1.8 mph 4.7 mph 43% 0 in CLR
04:20 57.7 °F 35.4 °F 29.9 in SW 2 mph 4.6 mph 43% 0 in CLR
04:25 57.9 °F 35.4 °F 29.9 in West 2 mph 6.9 mph 43% 0 in CLR
04:30 58.3 °F 36 °F 29.9 in WNW 4 mph 6.9 mph 43% 0 in CLR
04:35 58.3 °F 36 °F 29.9 in WNW 4 mph 4.6 mph 43% 0 in CLR
04:40 57.7 °F 36 °F 29.9 in WNW 4 mph 4.6 mph 44% 0 in CLR
04:45 57.4 °F 36.1 °F 29.9 in WNW 4 mph 4.6 mph 45% 0 in CLR
04:50 57 °F 36.3 °F 29.9 in WNW 2.4 mph 3.5 mph 46% 0 in CLR
04:55 56.5 °F 36.5 °F 29.9 in NNE 2.4 mph 4.6 mph 47% 0 in CLR
05:00 55.8 °F 36.3 °F 29.9 in NNE 2 mph 5 mph 48% 0 in CLR
05:05 55.6 °F 36.7 °F 29.9 in NE 2.9 mph 4.6 mph 49% 0 in CLR
05:10 55.6 °F 36.7 °F 29.9 in NE 2.9 mph 3.5 mph 49% 0 in CLR
05:15 55.8 °F 36.9 °F 29.9 in NE 2.9 mph 2.3 mph 49% 0 in CLR
05:20 55.8 °F 36.3 °F 29.9 in NE 1.8 mph   48% 0 in CLR
05:25 55.8 °F 36.9 °F 29.9 in NE 1.8 mph 2.3 mph 49% 0 in CLR
05:30 55.8 °F 36.9 °F 29.9 in NE 1.4 mph 2.3 mph 49% 0 in CLR
05:35 55.9 °F 36.5 °F 29.9 in NNE 1.4 mph 2.4 mph 48% 0 in CLR
05:40 56.1 °F 36.7 °F 29.9 in West 1.8 mph 3.5 mph 48% 0 in CLR
05:45 56.3 °F 36.3 °F 29.9 in WNW 1.8 mph 4.6 mph 47% 0 in CLR
05:50 56.5 °F 36.5 °F 29.9 in NW 2 mph 5.8 mph 47% 0 in CLR
05:55 56.5 °F 36.5 °F 29.9 in NW 2 mph 5.9 mph 47% 0 in CLR
06:00 56.8 °F 36.9 °F 29.9 in WNW 5 mph 9 mph 47% 0 in CLR
06:05 57 °F 36.3 °F 29.9 in WNW 4.3 mph 5.8 mph 46% 0 in CLR
06:10 56.8 °F 36.9 °F 29.9 in WNW 4.3 mph 5.8 mph 47% 0 in CLR
06:15 56.5 °F 37 °F 29.9 in NW 4.3 mph 6.9 mph 48% 0 in CLR
06:20 55.8 °F 36.9 °F 29.9 in NW 4.3 mph 8.1 mph 49% 0 in CLR
06:25 55.8 °F 36.9 °F 29.9 in NNW 4.3 mph 10.4 mph 49% 0 in CLR
06:30 55.9 °F 37 °F 29.9 in NW 6.9 mph 11.5 mph 49% 0 in CLR
06:35 56.3 °F 36.9 °F 30 in WNW 6.9 mph 12.7 mph 48% 0 in CLR
06:40 56.5 °F 37 °F 30 in WNW 8.5 mph 11.5 mph 48% 0 in CLR
06:45 56.5 °F 37 °F 30 in WNW 8.5 mph 11.5 mph 48% 0 in CLR
06:50 56.5 °F 37 °F 30 in NNW 8.1 mph 11.5 mph 48% 0 in CLR
06:55 56.5 °F 37 °F 30 in NW 8.1 mph 8.5 mph 48% 0 in CLR
07:00 56.3 °F 36.9 °F 30 in NW 7 mph 13 mph 48% 0 in CLR
07:05 56.1 °F 36.7 °F 30 in WNW 6.9 mph 10.4 mph 48% 0 in CLR
07:10 56.1 °F 36.7 °F 30 in NW 6.2 mph 8.1 mph 48% 0 in CLR
07:15 55.9 °F 37 °F 30 in WNW 6.2 mph 6.2 mph 49% 0 in CLR
07:20 55.9 °F 37 °F 30 in WNW 4.7 mph 8.1 mph 49% 0 in CLR
07:25 55.8 °F 36.9 °F 30 in WNW 4.7 mph 6.9 mph 49% 0 in CLR
07:30 55.8 °F 36.9 °F 30 in WNW 4.7 mph 5.8 mph 49% 0 in CLR
07:35 55.6 °F 36.7 °F 30 in NW 4.7 mph 4.6 mph 49% 0 in CLR
07:40 55.6 °F 37.2 °F 30 in WNW 3.6 mph 4.6 mph 50% 0 in CLR
07:45 55.4 °F 37 °F 30 in WNW 3.6 mph 6.9 mph 50% 0 in CLR
07:50 55.2 °F 36.9 °F 30 in NW 4.3 mph 6.9 mph 50% 0 in CLR
07:55 55.2 °F 36.9 °F 30 in WNW 4.3 mph 4.6 mph 50% 0 in CLR
08:00 55.2 °F 36.9 °F 30 in WNW 3 mph 5 mph 50% 0 in CLR
08:05 55.2 °F 36.9 °F 30 in WNW 3.6 mph 1.2 mph 50% 0 in CLR
08:10 55.2 °F 36.9 °F 30 in WNW 1.4 mph 4.6 mph 50% 0 in CLR
08:15 55.2 °F 36.9 °F 30 in WNW 1.4 mph 2.3 mph 50% 0 in CLR
08:20 55.4 °F 37 °F 30 in WNW 2 mph 2.3 mph 50% 0 in CLR
08:25 55.6 °F 37.2 °F 30 in SSW 2 mph 6.4 mph 50% 0 in CLR
08:30 55.6 °F 36.7 °F 30 in SW 2.9 mph 5.8 mph 49% 0 in CLR
08:35 55.6 °F 36.7 °F 30 in WSW 2.9 mph 6.9 mph 49% 0 in CLR
08:40 55.6 °F 36.7 °F 30 in WSW 4 mph 5.8 mph 49% 0 in CLR
08:45 55.8 °F 36.9 °F 30 in West 4 mph 5.8 mph 49% 0 in CLR
08:50 55.8 °F 36.9 °F 30 in West 3.6 mph 4.6 mph 49% 0 in CLR
08:55 55.8 °F 36.9 °F 30 in West 3.6 mph 4.6 mph 49% 0 in CLR
09:00 55.8 °F 36.9 °F 30 in West 3 mph 5 mph 49% 0 in CLR
09:05 55.8 °F 36.3 °F 30 in West 3.1 mph 2.3 mph 48% 0 in CLR
09:10 55.9 °F 36.5 °F 30 in WNW 1.8 mph 6.9 mph 48% 0 in CLR
09:15 55.9 °F 37 °F 30 in West 1.8 mph 2.3 mph 49% 0 in CLR
09:20 55.9 °F 36.5 °F 30 in WNW 2.4 mph   48% 0 in CLR
09:25 55.9 °F 36.5 °F 30 in SW 2.4 mph 8.1 mph 48% 0 in CLR
09:30 56.1 °F 36.7 °F 30 in WNW 3.1 mph 8.1 mph 48% 0 in CLR
09:35 56.1 °F 36.7 °F 30 in West 3.1 mph 5.8 mph 48% 0 in CLR
09:40 56.3 °F 36.3 °F 30 in West 5.9 mph 10.4 mph 47% 0 in CLR
09:45 56.5 °F 36.5 °F 30 in West 5.9 mph 10.4 mph 47% 0 in CLR
09:50 56.7 °F 36.1 °F 30 in NW 6.9 mph 12.7 mph 46% 0 in CLR
09:55 57 °F 36 °F 30 in West 6.9 mph 12.7 mph 45% 0 in CLR
10:00 57.4 °F 36.1 °F 30 in WNW 8 mph 17 mph 45% 0 in CLR
10:05 57.7 °F 36 °F 30 in West 8.1 mph 13.8 mph 44% 0 in CLR
10:10 57.9 °F 35.4 °F 30 in WNW 9.2 mph 15.9 mph 43% 0 in CLR
10:15 58.5 °F 36 °F 30 in NW 9.2 mph 12.7 mph 43% 0 in CLR
10:20 58.8 °F 36.3 °F 30 in West 9.7 mph 18.4 mph 43% 0 in CLR
10:25 58.8 °F 35.8 °F 30 in West 9.7 mph 16.1 mph 42% 0 in CLR
10:30 59.4 °F 36.1 °F 30 in West 10 mph 15 mph 42% 0 in CLR
10:35 59.4 °F 35.6 °F 30 in West 10 mph 17.3 mph 41% 0 in CLR
10:40 59.5 °F 35.8 °F 30 in WNW 10.2 mph 13.8 mph 41% 0 in CLR
10:45 59.5 °F 35.8 °F 30 in WSW 10.2 mph 17.3 mph 41% 0 in CLR
10:50 59.5 °F 35.8 °F 30 in West 11.2 mph 13.8 mph 41% 0 in CLR
10:55 59.7 °F 35.2 °F 30 in NW 11.2 mph 17.3 mph 40% 0 in CLR
11:00 60.1 °F 35.6 °F 30 in WNW 9 mph 13 mph 40% 0 in CLR
11:05 60.1 °F 35.8 °F 30 in North 9.2 mph 11.5 mph 40% 0 in CLR
11:10 60.3 °F 35.8 °F 30 in WNW 8.7 mph 10.7 mph 40% 0 in CLR
11:15 60.3 °F 35.2 °F 30 in NW 8.7 mph 11.5 mph 39% 0 in CLR
11:20 60.4 °F 35.2 °F 30 in WNW 8.5 mph 13.8 mph 39% 0 in CLR
11:25 60.6 °F 34.9 °F 30 in WNW 8.5 mph 14 mph 38% 0 in CLR
11:30 60.6 °F 34.9 °F 30 in NNW 10.2 mph 11.5 mph 38% 0 in CLR
11:35 60.8 °F 35.1 °F 30 in NNW 10.2 mph 9.2 mph 38% 0 in CLR
11:40 61.2 °F 35.2 °F 30 in WNW 6.9 mph 12.7 mph 38% 0 in CLR
11:45 61.3 °F 34.9 °F 30 in SSW 6.9 mph 12.7 mph 37% 0 in CLR
11:50 61.5 °F 35.1 °F 30 in West 7.6 mph 11.5 mph 37% 0 in CLR
11:55 61.5 °F 35.1 °F 30 in NW 7.6 mph 11.5 mph 37% 0 in CLR
12:00 61.5 °F 35.1 °F 30 in NW 7 mph 12 mph 37% 0 in CLR
12:05 61.7 °F 34.5 °F 30 in WSW 6.4 mph 15 mph 36% 0 in CLR
12:10 61.5 °F 34.3 °F 30 in SW 5.4 mph 10.4 mph 36% 0 in CLR
12:15 61.9 °F 34.5 °F 30 in WNW 5.4 mph 8.1 mph 36% 0 in CLR
12:20 62.1 °F 34.9 °F 30 in West 4 mph 4.6 mph 36% 0 in CLR
12:25 62.4 °F 34.3 °F 30 in NNW 4 mph 6.9 mph 35% 0 in CLR
12:30 62.6 °F 34.5 °F 30 in SSW 4.3 mph 9.2 mph 35% 0 in CLR
12:35 62.8 °F 34.7 °F 30 in WSW 4.3 mph 9.2 mph 35% 0 in CLR
12:40 63 °F 34.9 °F 30 in West 5.4 mph 9.7 mph 35% 0 in CLR
12:45 63 °F 34.9 °F 30 in SW 5.4 mph 9.2 mph 35% 0 in CLR
12:50 63 °F 34.9 °F 30 in SW 6.4 mph 6.9 mph 35% 0 in CLR
12:55 63.3 °F 34.3 °F 30 in WNW 6.4 mph 8.1 mph 34% 0 in CLR
13:00 63.7 °F 34.7 °F 30 in West 5 mph 7 mph 34% 0 in CLR
13:05 63.7 °F 34 °F 30 in SW 4 mph 9.2 mph 33% 0 in CLR
13:10 63.9 °F 34.2 °F 30 in South 3.6 mph 4.6 mph 33% 0 in CLR
13:15 64.2 °F 34.5 °F 30 in South 3.6 mph 6.9 mph 33% 0 in CLR
13:20 64.2 °F 33.6 °F 30 in WSW 4.3 mph 10.2 mph 32% 0 in CLR
13:25 64 °F 32.7 °F 30 in SW 4.3 mph 9.2 mph 31% 0 in CLR
13:30 64 °F 32.7 °F 30 in WSW 7.4 mph 8.1 mph 31% 0 in CLR
13:35 64.2 °F 32.9 °F 30 in West 7.4 mph 5.8 mph 31% 0 in CLR
13:40 64.2 °F 32.2 °F 30 in West 5.2 mph 8.1 mph 30% 0 in CLR
13:45 64.6 °F 32.4 °F 30 in West 5.2 mph 4.6 mph 30% 0 in CLR
13:50 65.1 °F 32 °F 30 in NNW 3.1 mph 6.9 mph 29% 0 in CLR
13:55 65.5 °F 32.4 °F 30 in NNE 3.1 mph 7.6 mph 29% 0 in CLR
14:00 65.7 °F 32.5 °F 30 in NW 5 mph 10 mph 29% 0 in CLR
14:05 65.8 °F 30.9 °F 30 in West 4 mph 10.4 mph 27% 0 in CLR
14:10 65.5 °F 30.6 °F 30 in SW 4.7 mph 9.2 mph 27% 0 in CLR
14:15 65.5 °F 31.5 °F 30 in South 4.7 mph 5.8 mph 28% 0 in CLR
14:20 65.7 °F 31.6 °F 29.9 in West 5.2 mph 4.6 mph 28% 0 in CLR
14:25 66 °F 32 °F 29.9 in West 5.2 mph 10.4 mph 28% 0 in CLR
14:30 66.4 °F 32.4 °F 29.9 in West 5.2 mph 12.7 mph 28% 0 in CLR
14:35 66 °F 32 °F 29.9 in WNW 5.2 mph 10.7 mph 28% 0 in CLR
14:40 65.8 °F 31.8 °F 29.9 in WSW 7.4 mph 12.7 mph 28% 0 in CLR
14:45 65.8 °F 31.8 °F 29.9 in NW 7.4 mph 8.1 mph 28% 0 in CLR
14:50 66 °F 32 °F 29.9 in WNW 5.2 mph 5.8 mph 28% 0 in CLR
14:55 66.2 °F 32.2 °F 29.9 in WNW 5.2 mph 9.2 mph 28% 0 in CLR
15:00 66 °F 32 °F 29.9 in WNW 5 mph 7 mph 28% 0 in CLR
15:05 66.2 °F 33.1 °F 29.9 in South 4.7 mph 5.8 mph 29% 0 in CLR
15:10 66.7 °F 32.5 °F 29.9 in SW 4 mph 9.2 mph 28% 0 in CLR
15:15 66.9 °F 32.7 °F 29.9 in West 4 mph 5.8 mph 28% 0 in CLR
15:20 67.3 °F 33.1 °F 29.9 in SW 5.2 mph 9.2 mph 28% 0 in CLR
15:25 66.7 °F 32.5 °F 29.9 in SSE 5.2 mph 2.4 mph 28% 0 in CLR
15:30 66.9 °F 32.7 °F 29.9 in NE 4 mph 2.3 mph 28% 0 in CLR
15:35 67.3 °F 33.1 °F 29.9 in East 4 mph 3.5 mph 28% 0 in CLR
15:40 67.6 °F 32.4 °F 29.9 in SW 2 mph 6.9 mph 27% 0 in CLR
15:45 67.5 °F 32.4 °F 29.9 in East 2 mph 6.9 mph 27% 0 in CLR
15:50 67.5 °F 32.4 °F 29.9 in NE 4 mph 10.4 mph 27% 0 in CLR
15:55 67.1 °F 32 °F 29.9 in NW 4 mph 6.9 mph 27% 0 in CLR
16:00 66.9 °F 31.8 °F 29.9 in NNW 5 mph 8 mph 27% 0 in CLR
16:05 66.7 °F 31.6 °F 29.9 in WNW 4.3 mph 8.1 mph 27% 0 in CLR
16:10 66.9 °F 32.7 °F 29.9 in West 3.6 mph 5.8 mph 28% 0 in CLR
16:15 67.5 °F 33.3 °F 29.9 in SSW 3.6 mph 6.9 mph 28% 0 in CLR
16:20 67.5 °F 32.4 °F 29.9 in South 5.2 mph 8.1 mph 27% 0 in CLR
16:25 67.6 °F 32.4 °F 29.9 in SW 5.2 mph 2.3 mph 27% 0 in CLR
16:30 68 °F 31.8 °F 29.9 in West 3.1 mph 4.6 mph 26% 0 in CLR
16:35 68.2 °F 32.9 °F 29.9 in NNE 3.1 mph 3.5 mph 27% 0 in CLR
16:40 68.4 °F 33.1 °F 29.9 in NNE 2.4 mph 4.6 mph 27% 0 in CLR
16:45 68.5 °F 33.3 °F 29.9 in ENE 2.4 mph 6.9 mph 27% 0 in CLR
16:50 68.7 °F 32.4 °F 29.9 in West 2.4 mph 4.6 mph 26% 0 in CLR
16:55 68.5 °F 32.4 °F 29.9 in NE 2.4 mph 4.6 mph 26% 0 in CLR
17:00 68.4 °F 32.2 °F 29.9 in ENE 3 mph 6 mph 26% 0 in CLR
17:05 67.8 °F 36.9 °F 29.9 in South 3.1 mph 10.4 mph 32% 0 in CLR
17:10 67.5 °F 37.2 °F 29.9 in South 5.9 mph 14 mph 33% 0 in CLR
17:15 66.9 °F 38.5 °F 29.9 in ESE 5.9 mph 12.7 mph 35% 0 in CLR
17:20 66.7 °F 38.8 °F 29.9 in South 9.2 mph 13.8 mph 36% 0 in CLR
17:25 66.4 °F 39.9 °F 29.9 in SSE 9.2 mph 18.4 mph 38% 0 in CLR
17:30 65.8 °F 40.3 °F 29.9 in South 11.2 mph 12.7 mph 39% 0 in CLR
17:35 65.7 °F 39.9 °F 29.9 in South 11.2 mph 11.8 mph 39% 0 in CLR
17:40 65.5 °F 40.5 °F 29.9 in SSE 10.7 mph 17.3 mph 40% 0 in CLR
17:45 65.1 °F 40.3 °F 29.9 in South 10.7 mph 12.7 mph 40% 0 in CLR
17:50 65.3 °F 39.7 °F 29.9 in SSE 9.2 mph 9.2 mph 39% 0 in CLR
17:55 65.3 °F 39.7 °F 29.9 in SSE 9.2 mph 12.7 mph 39% 0 in CLR
18:00 65.5 °F 40.5 °F 29.9 in South 7 mph 15 mph 40% 0 in CLR
18:05 65.1 °F 40.3 °F 29.9 in SE 6.9 mph 12.7 mph 40% 0 in CLR
18:10 64.9 °F 40.6 °F 29.9 in SSE 9.2 mph 13.8 mph 41% 0 in CLR
18:15 64.6 °F 41 °F 29.9 in South 9.2 mph 12.3 mph 42% 0 in CLR
18:20 64.6 °F 41 °F 29.9 in SSE 8.1 mph 11.5 mph 42% 0 in CLR
18:25 64 °F 41.2 °F 29.9 in South 8.1 mph 12.7 mph 43% 0 in CLR
18:30 63.9 °F 40.8 °F 29.9 in South 8.5 mph 11.5 mph 43% 0 in CLR
18:35 63.7 °F 41.4 °F 29.9 in SSW 8.5 mph 10.4 mph 44% 0 in CLR
18:40 63.3 °F 41 °F 29.9 in South 7.6 mph 13.8 mph 44% 0 in CLR
18:45 62.8 °F 40.5 °F 29.9 in South 7.6 mph 9.2 mph 44% 0 in CLR
18:50 62.8 °F 40.5 °F 29.9 in SSE 8.1 mph 9.2 mph 44% 0 in CLR
18:55 62.4 °F 40.3 °F 29.9 in SSE 8.1 mph 15 mph 44% 0 in CLR
19:00 62.2 °F 39.9 °F 29.9 in SSE 8 mph 13 mph 44% 0 in CLR
19:05 61.9 °F 40.3 °F 29.9 in South 8.1 mph 10.4 mph 45% 0 in CLR
19:10 61.7 °F 40.1 °F 29.9 in SSE 6.9 mph 9.2 mph 45% 0 in CLR
19:15 61.5 °F 40.5 °F 29.9 in SSE 6.9 mph 6.9 mph 46% 0 in CLR
19:20 61.5 °F 41.2 °F 29.9 in SSE 5.2 mph 6.9 mph 47% 0 in CLR
19:25 61.2 °F 41.4 °F 29.9 in South 5.2 mph 9.2 mph 48% 0 in CLR
19:30 61.2 °F 41.7 °F 29.9 in South 5.4 mph 10.4 mph 49% 0 in CLR
19:35 61 °F 41.7 °F 29.9 in SW 5.4 mph 6.9 mph 49% 0 in CLR
19:40 61 °F 41.7 °F 29.9 in South 5.4 mph 6.2 mph 49% 0 in CLR
19:45 60.8 °F 41.5 °F 29.9 in WSW 5.4 mph 4.6 mph 49% 0 in CLR
19:50 60.8 °F 41.5 °F 30 in WSW 3.6 mph 3.5 mph 49% 0 in CLR
19:55 60.8 °F 40.5 °F 30 in SW 3.6 mph 4.6 mph 47% 0 in CLR
20:00 60.6 °F 39.7 °F 30 in WSW 2 mph 6 mph 46% 0 in CLR
20:05 60.6 °F 39.7 °F 30 in SSW 2.9 mph 4.6 mph 46% 0 in CLR
20:10 60.6 °F 39.7 °F 30 in SSW 3.1 mph 3.5 mph 46% 0 in CLR
20:15 60.6 °F 40.8 °F 30 in SSW 3.1 mph 2.3 mph 48% 0 in CLR
20:20 60.4 °F 40.6 °F 30 in SSW 1.4 mph 5.9 mph 48% 0 in CLR
20:25 60.4 °F 39.6 °F 30 in SSW 1.4 mph 8.1 mph 46% 0 in CLR
20:30 60.4 °F 39.6 °F 30 in SW 4 mph 4.6 mph 46% 0 in CLR
20:35 60.4 °F 39.6 °F 30 in SW 4 mph 4.7 mph 46% 0 in CLR
20:40 60.3 °F 39.4 °F 30 in SW 2.9 mph 4.6 mph 46% 0 in CLR
20:45 60.3 °F 38.8 °F 30 in South 2.9 mph 4.6 mph 45% 0 in CLR
20:50 60.3 °F 38.8 °F 30 in South 3.1 mph 2.3 mph 45% 0 in CLR
20:55 60.1 °F 39.2 °F 30 in South 3.1 mph   46% 0 in CLR
21:00 59.9 °F 40.1 °F 30 in Calm     48% 0 in CLR
21:05 59.5 °F 40.3 °F 30 in Calm     49% 0 in CLR
21:10 59.4 °F 40.3 °F 30 in Calm   5.8 mph 49% 0 in CLR
21:15 58.8 °F 39.7 °F 30 in Calm   5.8 mph 49% 0 in CLR
21:20 58.6 °F 39.9 °F 30 in NW 3.6 mph 5.8 mph 50% 0 in CLR
21:25 58.5 °F 39.9 °F 30 in WNW 3.6 mph 4.6 mph 50% 0 in CLR
21:30 58.3 °F 40.3 °F 30 in WNW 2.9 mph   51% 0 in CLR
21:35 58.1 °F 40.1 °F 30 in WNW 2.9 mph   51% 0 in CLR
21:40 57.9 °F 39.9 °F 30 in Calm   2.3 mph 51% 0 in CLR
21:45 57.9 °F 39.9 °F 30 in Calm   2.3 mph 51% 0 in CLR
21:50 57.9 °F 39.9 °F 30 in South 2 mph 5.9 mph 51% 0 in CLR
21:55 58.1 °F 39.6 °F 30 in South 2 mph 5.8 mph 50% 0 in CLR
22:00 58.3 °F 39.7 °F 30 in South 5 mph 7 mph 50% 0 in CLR
22:05 58.3 °F 39.7 °F 30 in South 4.3 mph 5.9 mph 50% 0 in CLR
22:10 58.3 °F 39.7 °F 30 in South 4 mph 4.6 mph 50% 0 in CLR
22:15 57.9 °F 39.4 °F 30 in South 4 mph 5.8 mph 50% 0 in CLR
22:20 57.7 °F 39.7 °F 30 in South 4 mph 5.8 mph 51% 0 in CLR
22:25 57.6 °F 39.6 °F 30 in SW 4 mph 5.4 mph 51% 0 in CLR
22:30 57.6 °F 39.6 °F 30 in SW 4.3 mph 6.9 mph 51% 0 in CLR
22:35 57.6 °F 39.6 °F 30 in SW 4.3 mph 6.9 mph 51% 0 in CLR
22:40 57.6 °F 40.1 °F 30 in WSW 4.7 mph 8.1 mph 52% 0 in CLR
22:45 57.6 °F 40.1 °F 30 in West 4.7 mph 6.9 mph 52% 0 in CLR
22:50 57.6 °F 40.1 °F 30 in SW 4.7 mph 5.8 mph 52% 0 in CLR
22:55 57.4 °F 39.9 °F 30 in WSW 4.7 mph 4.7 mph 52% 0 in CLR
23:00 57.4 °F 39.7 °F 30 in SW 3 mph 6 mph 52% 0 in CLR
23:05 56.8 °F 39.4 °F 30 in SE 3.6 mph 4.6 mph 52% 0 in CLR
23:10 56.7 °F 39.7 °F 30 in South 3.1 mph 5.8 mph 53% 0 in CLR
23:15 56.5 °F 39.9 °F 30 in SW 3.1 mph 4.6 mph 54% 0 in CLR
23:20 56.1 °F 40.3 °F 30 in SSW 4.3 mph 5.8 mph 55% 0 in CLR
23:25 56.1 °F 40.3 °F 30 in SW 4.3 mph 5.4 mph 55% 0 in CLR
23:30 55.9 °F 40.5 °F 30 in SSW 4.3 mph 5.2 mph 56% 0 in CLR
23:35 55.8 °F 40.3 °F 30 in South 4.3 mph 6.9 mph 56% 0 in CLR
23:40 55.8 °F 40.6 °F 30 in SSW 4.3 mph 5.8 mph 57% 0 in CLR
23:45 55.6 °F 40.6 °F 30 in SW 4.3 mph 5.8 mph 57% 0 in CLR
23:50 55.6 °F 40.6 °F 30 in SSW 4.3 mph 4.6 mph 57% 0 in CLR
23:55 55.2 °F 40.3 °F 30 in South 4.3 mph 6.9 mph 57% 0 in CLR
Murcia-Puente Tocinos, España
Compliments of Weather Underground - 3.5 mb

La estación de MeteoMurcia.com, publica sus datos en los siguientes proyectos:

Weather Underground PWS IMURCIAP2 Meteoclimatic www.awekas.at

W3Counter
Web Analytics